Location: G�ndlingen
(48.0142°N, 7.6396°E)
Time: 02:28:19
(UTC+00:00)

Aureole 2 Rocket - Pass Details

Date: 05 July 2020
Orbit: 304 x 429 km, 73.9° (Epoch: 04 August)

Event Time Altitude Azimuth Distance (km) Brightness Sun altitude
Rises 22:43:44 0° 338° (NNW) 2,120 7.4 -18.4°
Reaches altitude 10° 22:45:39 10° 340° (NNW) 1,298 6.0 -18.5°
Enters shadow 22:48:27 76° 57° (ENE) 368 1.9 -18.6°
